Regional Weather Roundup
Issued by NWS

Home | Current Version | Previous Version | Graphics & Text | Print | Product List | Glossary On
Versions: 1 2 3 4 5 6 7 8 9 10 11 12 13 14 15 16 17 18 19 20 21 22 23 24 25 26 27 28 29 30 31 32 33 34 35 36 37 38 39 40 41 42 43 44 45 46 47 48 49 50
000
ASUS45 KTFX 010704
RWRMT
MONTANA HOURLY WEATHER ROUNDUP
NATIONAL WEATHER SERVICE GREAT FALLS MT
1204 AM MST SUN FEB 1 2015

NOTE: "FAIR" INDICATES FEW OR NO CLOUDS BELOW 12000 FEET WITH NO
SIGNIFICANT WEATHER AND/OR OBSTRUCTIONS TO VISIBILITY.

* THESE STATIONS ARE NOT UNDER NWS QUALITY CONTROL. THEY DO NOT
   REPORT WEATHER SUCH AS PRECIPITATION OR FOG.

MTZ001>007-043-010800-
WEST OF THE DIVIDE
CITY           SKY/WX    TMP DP  RH WIND       PRES   REMARKS
KALISPELL      CLOUDY    27  16  63 N7        30.27R WCI  19
MISSOULA       CLOUDY    30  25  82 NE5       30.25R WCI  25
BUTTE          PTCLDY    18  12  77 S3        30.16R
MULLAN PASS    CLOUDY    21  18  88 CALM      30.14R
* ANACONDA     PTCLDY    19  14  81 S3         N/A
* ESSEX        N/A       16   6  64 SE6        N/A   WCI   7
* LINCOLN      N/A        9   3  76 NW1G6      N/A
* LOOKOUT PASS N/A       23  23 100 N/A        N/A
* POLSON       N/A       24  23  96 N/A        N/A
* RONAN APT    PTCLDY    28  28 100 N/A        N/A
* SEELEY LAKE  N/A       20  13  74 N/A        N/A
* THOMP F APT  PTCLDY    13   9  84 NE2        N/A
$$

MTZ008-052>055-010800-
SOUTHWEST MONTANA
CITY           SKY/WX    TMP DP  RH WIND       PRES   REMARKS
BOZEMAN        CLOUDY    18  12  77 W5        30.24R WCI  11
DILLON         PTCLDY    14   9  80 E10       30.17R WCI   1
* W YELLOWSTON PTCLDY    11   8  88 N/A        N/A
* THREE FORKS  MOCLDY    19  18  96 N/A        N/A
* BOULDER HILL N/A        9   5  84 N8         N/A   WCI  -3
* MONIDA PASS  N/A        5   1  83 NE3        N/A
* RAYNOLDS PAS N/A       14 -17  23 NE6        N/A   WCI   5
* WHITEHALL    N/A       17   9  71 NW3        N/A
* WISE RIVER   N/A       18  10  71 SE5        N/A   WCI  11
$$

MTZ009>010-012-014-046-048-049-054-010800-
EAST SLOPES AND CENTRAL MONTANA
CITY           SKY/WX    TMP DP  RH WIND       PRES   REMARKS
CUT BANK       CLEAR      0  -2  91 S3        30.32R
GREAT FALLS    MOCLDY     0  -4  83 CALM      30.35R
HELENA         CLOUDY    18   9  68 W7        30.30R WCI   9
MALMSTROM AFB  MOCLDY    -2  -6  83 SE5       30.38R WCI -13
* DEARBORN     N/A       11   6  80 N/A        N/A
* EAST GLACIER N/A      N/A N/A N/A W1         N/A
* MONARCH      N/A        2  -2  83 N/A        N/A
* PENDROY      N/A        0  -2  91 SW3        N/A
* ROGERS PASS  N/A        6   1  80 SE1        N/A
* SWEET GRASS  N/A        3   0  87 NW1        N/A
$$

MTZ011-013-016-021-035-040-045-047-050-051-010800-
NORTH CENTRAL MONTANA
CITY           SKY/WX    TMP DP  RH WIND       PRES   REMARKS
HAVRE          CLOUDY     3   0  87 N3        30.45R
LEWISTOWN      CLOUDY     7   3  83 W8        30.30R WCI  -6
* N BAR RANCH  CLOUDY     7   0  73 NW10      30.26S WCI  -7
* CHESTER      N/A        0  -5  79 N/A        N/A
* DENTON       N/A        4   2  91 W1         N/A
* GEYSER       N/A        4   1  87 W12G18     N/A   WCI -12
* JUDITH GAP   N/A        5   3  91 VRB18      N/A   WCI -15
* LOMA         N/A       -1  -4  87 W4         N/A
$$

MTZ017>020-022>027-061-062-010800-
NORTHEAST MONTANA
CITY           SKY/WX    TMP DP  RH WIND       PRES   REMARKS
GLASGOW        LGT SNOW   3  -2  79 NE6       30.46S WCI  -8
GLENDIVE       PTCLDY     0  -6  75 N9        30.41R WCI -15
JORDAN         PTCLDY     3   1  91 CALM      30.40S
SIDNEY         PTCLDY     0  -8  68 N8        30.50R WCI -14
WOLF POINT     CLOUDY     3  -6  66 E6        30.51R WCI  -8
* BEAVER HILL  N/A       -2  -6  83 N8         N/A   WCI -17
* CIRCLE       N/A        2  -1  87 NE7        N/A   WCI -11
* LINDSAY DVD  N/A        0  -4  83 N6         N/A   WCI -12
* NAVAJO       N/A       -5  -9  82 VRB6       N/A   WCI -18
* SACO         N/A        3  -1  83 N3         N/A
$$

MTZ028>042-056>058-010800-
SOUTHCENTRAL AND SOUTHEAST MONTANA
CITY           SKY/WX    TMP DP  RH WIND       PRES   REMARKS
BAKER          LGT SNOW   1  -2  87 NE7       30.32R VSB 2    WCI -12
BILLINGS       LGT SNOW  10   9  96 E7        30.31R VSB 2 1/2 WCI  -1
LIVINGSTON     CLOUDY    18  10  71 W6        30.21R WCI  10
MILES CITY     CLOUDY     3   0  87 NE9       30.38R WCI -11
* LAUREL APT   CLOUDY    12   7  80 NE7        N/A   WCI   1
* ROUNDUP APT  CLOUDY     9   1  70 NE6        N/A   WCI  -1
* ALZADA       N/A        7   4  87 VRB5       N/A   WCI  -2
* HYSHAM       N/A        5   1  83 N/A        N/A
* LAME DEER    N/A        3  -1  83 NW10       N/A   WCI -12
* REED POINT   N/A       16   9  74 NE8        N/A   WCI   5
* ROSCOE HILL  N/A       10   7  88 N3         N/A
$$

REGIONAL REPORTS...DAKOTAS
CITY           SKY/WX    TMP DP  RH WIND       PRES   REMARKS
WILLISTON      CLOUDY    -4 -11  71 N8        30.49R WCI -19
DICKINSON      LGT SNOW  -2  -8  75 NE9       30.34R VSB 1 1/2 WCI -18
CROSBY         CLEAR     -4 -13  65 E5        30.52R WCI -15
WATFORD CITY   CLEAR     -2 -11  65 N6        30.44R WCI -14
BISMARCK       LGT SNOW  -4 -11  71 N12       30.45R VSB 3    WCI -22
GRAND FORKS    PTCLDY    -9 -17  67 N15       30.55S WCI -31
FARGO          CLOUDY    -2 -11  65 N20       30.44S WCI -25
BUFFALO SD     PTCLDY     1  -2  87 N9        30.20R WCI -14
RAPID CITY     LGT SNOW  10   7  88 N13       30.18R WCI  -5
$$

REGIONAL REPORTS...WYOMING/IDAHO/WASHINGTON
CITY           SKY/WX    TMP DP  RH WIND       PRES   REMARKS
GILLETTE       CLOUDY    12   9  88 N17G23    30.16R WCI  -5
SHERIDAN       CLOUDY    14   7  73 NW21      30.24R WCI  -4
CODY           CLOUDY    14  14 100 N13       30.15R
YELLOWSTONE LA PTCLDY     3   0  87 CALM      30.09S
SALMON         CLOUDY    21  19  92 CALM      30.24R
MULLAN PASS    CLOUDY    21  18  88 CALM      30.14S
SAND POINT     CLOUDY    32  32 100 CALM      30.30S
SPOKANE        CLOUDY    30  28  92 NE5       30.26F WCI  25

$$




USA.gov is the U.S. government's official web portal to all federal, state and local government web resources and services.